Skip Page Navigation
NASA JPL Caltech
NASA Logo - Jet Propulsion Laboratory + View the NASA Portal
+ Center for Near-Earth Object Studies
JPL Home Earth Solar System Stars & Galaxies Technology
JPL Solar System Dynamics
BODIES ORBITS EPHEMERIDES TOOLS PHYSICAL DATA DISCOVERY FAQ SITE MAP
IMPORTANT: The SSD Announcement email list is now available. Major changes are coming in the near future, including possible hostname and/or URL changes. To be notified of such changes, subscribe to this email list.

Please visit this page for more details.


JPL Small-Body Database Browser
Search: [ help ]  
59332 (1999 CQ104)
Classification: Main-belt Asteroid          SPK-ID: 2059332
Ephemeris | Orbit Diagram | Orbital Elements | Mission Design | Physical Parameters | Discovery Circumstances | Close-Approach Data ]

[ show orbit diagram ]
Orbital Elements at Epoch 2458600.5 (2019-Apr-27.0) TDB
Reference: JPL 26 (heliocentric ecliptic J2000)
 Element Value Uncertainty (1-sigma)   Units 
e .1324558458574857 4.1405e-08  
a 2.419741511282734 9.4494e-09 au
q 2.099232602649308 9.8714e-08 au
i 2.817714603612564 3.813e-06 deg
node 260.9199559489321 9.3264e-05 deg
peri 282.7826233968653 9.4448e-05 deg
M 99.90581799234631 1.6479e-05 deg
tp 2458218.959918114030
(2018-Apr-10.45991811)
6.2354e-05 TDB
period 1374.839145899107
3.76
8.0534e-06
2.205e-08
d
yr
n .2618488141495054 1.5338e-09 deg/d
Q 2.740250419916159 1.0701e-08 au
  Orbit Determination Parameters
   # obs. used (total)      1137  
   data-arc span      7604 days (20.82 yr)  
   first obs. used      1999-01-22  
   last obs. used      2019-11-17  
   planetary ephem.      DE431  
   SB-pert. ephem.      SB431-N16  
   condition code      0  
   norm. resid. RMS      .56446  
   source      ORB  
   producer      Otto Matic  
   solution date      2019-Dec-14 06:09:33  

Additional Information
 Earth MOID = 1.10384 au 
 Jupiter MOID = 2.23252 au 
 T_jup = 3.501 
[ show covariance matrix ]

Ephemeris | Orbit Diagram | Orbital Elements | Mission Design | Physical Parameters | Discovery Circumstances | Close-Approach Data ]

Physical Parameter Table
Parameter Symbol Value Units Sigma Reference Notes
absolute magnitude H 15.0   n/a MPO452974  
diameter diameter 6.242 km 0.069 urn:nasa:pds:neowise_diameters_albedos::2.0[mainbelt] (http://adsabs.harvard.edu/abs/2011ApJ...741...68M)  
geometric albedo albedo 0.031   0.006 urn:nasa:pds:neowise_diameters_albedos::2.0[mainbelt] (http://adsabs.harvard.edu/abs/2011ApJ...741...68M)  

59332 (1999 CQ104)          Discovered 1999-Feb-12 by LINEAR at Socorro
Reference: 20030614/Numbers.arcLast Updated: 2004-04-19

[ show close-approach data ]
Alternate Designations
 1999 CQ104 = 2000 NQ20 
Ephemeris | Orbit Diagram | Orbital Elements | Mission Design | Physical Parameters | Discovery Circumstances | Close-Approach Data ]
ABOUT SSD CREDITS/AWARDS PRIVACY/COPYRIGHT GLOSSARY LINKS
FirstGov 2020-Jan-19 20:04 UT
(server date/time)  
NASA Home Page
Site Manager:   Ryan S. Park
Webmaster  Alan B. Chamberlin